C/2019 T4 ( ATLAS )

Japanese version
Home page
Updated on September 11, 2022

---------------------------------------------------------------------

* Profile

Discovery Date October 9, 2019
Magnitude 19.3 mag
Discoverer Asteroid Terrestrial-Impact Last Alert System (ATLAS) search program

* Pictures

* Orbital Elements

Epoch 2022 Aug. 9.0 TT = JDT 2459800.5
T 2022 June  9.09886 TT                                 Rudenko
q   4.2423857            (2000.0)            P               Q
z  +0.0010046      Peri.  351.19517     -0.95993306     +0.05594365
 +/-0.0000003      Node   199.93879     -0.18187504     -0.86983185
e   0.9957381      Incl.   53.63024     -0.21319003     +0.49016616
From 1685 observations 2019 Feb. 5-2022 Aug. 28, mean residual 0".4.

* Finding Charts

* Magnitudes Graph

        m1 = -2.5 + 5 log d + 18.0 log r

---------------------------------------------------------------------

The orbital elements are published on M.P.E.C. 2022-R68.
The charts are made with StellaNavigator Ver.10 (AstroArts).
The magnitudes graphs are made with Comet for Windows.

---------------------------------------------------------------------

Copyright(C) Seiichi Yoshida (comet@aerith.net). All rights reserved.